STARLINK-36143 (67056 NORAD) Tracking and Keplerian Element Data

This shows tracking and keplerian element data for the satellite.

Feedback or suggestion? Click here.




ElementValue
Catalog67056
NameSTARLINK-36143
Epoch Orbit151
Epoch Day354.25003472
Epoch Year2025
RAAN136.1468
Inclination43.0002
Eccentricity0.0001641
Argument of Perigee261.3611
Mean Anonmoly22.7657
Mean Motion15.89650421
Decay Rate-0.01500358
L11 67056U 25294AC 25354.25003472 -.01500358 00000+0 -56739-2 0 9993
L22 67056 43.0002 136.1468 0001641 261.3611 22.7657 15.89650421 1513



Live tracking and technical data element details for STARLINK-36143 (NORAD 67056). STARLINK-36143 can be tracked NOW for your location showing map with azimuth and elevation plus other details from your city location.







IsCatalogInMostPopularTable: catalog: 67056, numindb: 17
Update: records affected: 1



GetName: 67056 STARLINK-36143

Hit Count: updated at: Fri, 16 Jan 2026 08:49:44 GMT